When you browse on this site, cookies collect data to enhance your experience and personalize the content and advertising you see.
Visit our Privacy Policy to learn more. By continuing to use the site, you agree to this use of cookies and data.
  • în România
  • Lista ţărilor
  • Pe 7 zile
  • Temperatura apei
  • Hartă satelitară
  • Meteo pe hartă
  • Widget-uri
  • user-avatar
    Intrare

    Meteo pe oră la Dębno

    Astăzi, 26 Martie, Marţi

    Timp Temperatura Precipitaţii Vânt Presiune Umiditate
    00:00 +1°C° 0 mm 2 m/s 762 mmHg 95%
    01:00 +1°C° 0 mm 2 m/s 762 mmHg 95%
    02:00 +1°C° 0 mm 2 m/s 762 mmHg 94%
    03:00 0°C° 0 mm 3 m/s 762 mmHg 94%
    04:00 0°C° 0 mm 3 m/s 763 mmHg 94%
    05:00 -1°C° 0 mm 4 m/s 763 mmHg 93%
    06:00 0°C° 0 mm 4 m/s 763 mmHg 92%
    07:00 0°C° 0 mm 4 m/s 762 mmHg 91%
    08:00 +1°C° 0 mm 5 m/s 762 mmHg 85%
    09:00 +2°C° 0 mm 6 m/s 762 mmHg 79%
    10:00 +2°C° 0 mm 8 m/s 762 mmHg 74%
    11:00 +4°C° 0 mm 7 m/s 762 mmHg 72%
    12:00 +4°C° 0 mm 7 m/s 762 mmHg 70%
    13:00 +4°C° 0 mm 7 m/s 762 mmHg 68%
    14:00 +4°C° 0 mm 7 m/s 762 mmHg 67%
    15:00 +4°C° 0 mm 6 m/s 762 mmHg 67%
    16:00 +4°C° 0 mm 6 m/s 762 mmHg 66%
    17:00 +5°C° 0 mm 5 m/s 762 mmHg 67%
    18:00 +5°C° 0 mm 4 m/s 762 mmHg 67%
    19:00 +4°C° 0 mm 3 m/s 763 mmHg 68%
    20:00 +3°C° 0 mm 3 m/s 763 mmHg 72%
    21:00 +3°C° 0 mm 2 m/s 764 mmHg 76%
    22:00 +2°C° 0 mm 2 m/s 765 mmHg 80%
    23:00 +2°C° 0 mm 2 m/s 765 mmHg 80%

    Mâine, 27 Martie, Miercuri

    Timp Temperatura Precipitaţii Vânt Presiune Umiditate
    00:00 +1°C° 0 mm 2 m/s 765 mmHg 81%
    01:00 +1°C° 0 mm 2 m/s 766 mmHg 82%
    02:00 +1°C° 0 mm 2 m/s 766 mmHg 82%
    03:00 -1°C° 0 mm 2 m/s 766 mmHg 83%
    04:00 -1°C° 0 mm 2 m/s 766 mmHg 83%
    05:00 +1°C° 0 mm 2 m/s 766 mmHg 85%
    06:00 +2°C° 0 mm 2 m/s 767 mmHg 87%
    07:00 +3°C° 0 mm 2 m/s 767 mmHg 89%
    08:00 +3°C° 0 mm 3 m/s 767 mmHg 85%
    09:00 +5°C° 0 mm 3 m/s 767 mmHg 81%
    10:00 +6°C° 0 mm 4 m/s 767 mmHg 78%
    11:00 +8°C° 0 mm 4 m/s 767 mmHg 71%
    12:00 +9°C° 0 mm 5 m/s 767 mmHg 64%
    13:00 +10°C° 0 mm 5 m/s 767 mmHg 58%
    14:00 +10°C° 0 mm 5 m/s 767 mmHg 62%
    15:00 +9°C° 0 mm 5 m/s 766 mmHg 66%
    16:00 +9°C° 0 mm 5 m/s 766 mmHg 70%
    17:00 +8°C° 0.2 mm 5 m/s 766 mmHg 76%
    18:00 +7°C° 0.2 mm 4 m/s 766 mmHg 82%
    19:00 +6°C° 0.2 mm 4 m/s 766 mmHg 87%
    20:00 +6°C° 0 mm 4 m/s 767 mmHg 89%
    21:00 +6°C° 0 mm 4 m/s 767 mmHg 90%
    22:00 +7°C° 0 mm 3 m/s 767 mmHg 91%
    23:00 +7°C° 0.1 mm 3 m/s 767 mmHg 92%

    Poimâine, 28 Martie, Joi

    Timp Temperatura Precipitaţii Vânt Presiune Umiditate
    00:00 +7°C° 0.1 mm 3 m/s 767 mmHg 93%
    01:00 +7°C° 0.1 mm 3 m/s 767 mmHg 93%
    02:00 +7°C° 0 mm 3 m/s 767 mmHg 94%
    03:00 +7°C° 0 mm 3 m/s 768 mmHg 94%
    04:00 +7°C° 0 mm 3 m/s 768 mmHg 95%
    05:00 +7°C° 0 mm 3 m/s 768 mmHg 94%
    06:00 +7°C° 0 mm 3 m/s 768 mmHg 93%
    07:00 +7°C° 0 mm 3 m/s 769 mmHg 92%
    08:00 +8°C° 0 mm 3 m/s 769 mmHg 86%
    09:00 +9°C° 0 mm 3 m/s 769 mmHg 80%
    10:00 +10°C° 0 mm 3 m/s 770 mmHg 74%
    11:00 +11°C° 0 mm 3 m/s 770 mmHg 70%
    12:00 +12°C° 0 mm 3 m/s 770 mmHg 65%
    13:00 +14°C° 0 mm 2 m/s 770 mmHg 60%
    14:00 +14°C° 0 mm 2 m/s 771 mmHg 60%
    15:00 +14°C° 0 mm 2 m/s 771 mmHg 60%
    16:00 +14°C° 0 mm 2 m/s 771 mmHg 59%
    17:00 +13°C° 0 mm 2 m/s 771 mmHg 65%
    18:00 +12°C° 0 mm 2 m/s 771 mmHg 71%
    19:00 +9°C° 0 mm 2 m/s 771 mmHg 77%
    20:00 +9°C° 0 mm 2 m/s 771 mmHg 81%
    21:00 +8°C° 0 mm 2 m/s 772 mmHg 85%
    22:00 +8°C° 0 mm 1 m/s 772 mmHg 90%
    23:00 +8°C° 0 mm 1 m/s 772 mmHg 91%

    29 Martie, Vineri

    Timp Temperatura Precipitaţii Vânt Presiune Umiditate
    00:00 +7°C° 0 mm 1 m/s 772 mmHg 92%
    01:00 +7°C° 0 mm 1 m/s 772 mmHg 93%
    02:00 +6°C° 0 mm 2 m/s 772 mmHg 94%
    03:00 +6°C° 0 mm 2 m/s 772 mmHg 95%
    04:00 +6°C° 0 mm 2 m/s 772 mmHg 96%
    05:00 +6°C° 0 mm 2 m/s 772 mmHg 96%
    06:00 +6°C° 0 mm 2 m/s 772 mmHg 96%
    07:00 +7°C° 0 mm 2 m/s 772 mmHg 96%
    08:00 +8°C° 0 mm 2 m/s 772 mmHg 89%
    09:00 +10°C° 0 mm 2 m/s 772 mmHg 82%
    10:00 +13°C° 0 mm 2 m/s 772 mmHg 75%
    11:00 +14°C° 0 mm 2 m/s 772 mmHg 71%
    12:00 +15°C° 0 mm 2 m/s 771 mmHg 68%
    13:00 +16°C° 0 mm 2 m/s 771 mmHg 64%
    14:00 +16°C° 0 mm 2 m/s 771 mmHg 64%
    15:00 +16°C° 0 mm 2 m/s 770 mmHg 64%
    16:00 +16°C° 0 mm 2 m/s 770 mmHg 63%
    17:00 +15°C° 0 mm 2 m/s 770 mmHg 68%
    18:00 +14°C° 0 mm 2 m/s 769 mmHg 73%
    19:00 +12°C° 0 mm 2 m/s 769 mmHg 78%
    20:00 +12°C° 0 mm 2 m/s 769 mmHg 82%
    21:00 +10°C° 0 mm 2 m/s 769 mmHg 85%
    22:00 +9°C° 0 mm 2 m/s 769 mmHg 89%
    23:00 +9°C° 0 mm 2 m/s 769 mmHg 90%

    30 Martie, Sâmbătă

    Timp Temperatura Precipitaţii Vânt Presiune Umiditate
    00:00 +8°C° 0 mm 2 m/s 769 mmHg 90%
    01:00 +8°C° 0 mm 2 m/s 769 mmHg 91%
    02:00 +8°C° 0 mm 2 m/s 768 mmHg 92%
    03:00 +7°C° 0 mm 2 m/s 768 mmHg 93%
    04:00 +7°C° 0 mm 2 m/s 768 mmHg 93%
    05:00 +7°C° 0 mm 2 m/s 768 mmHg 93%
    06:00 +7°C° 0 mm 2 m/s 767 mmHg 92%
    07:00 +8°C° 0 mm 2 m/s 767 mmHg 91%
    08:00 +10°C° 0 mm 2 m/s 767 mmHg 83%
    09:00 +13°C° 0 mm 2 m/s 767 mmHg 74%
    10:00 +15°C° 0 mm 2 m/s 766 mmHg 66%
    11:00 +16°C° 0 mm 3 m/s 766 mmHg 60%
    12:00 +17°C° 0 mm 3 m/s 765 mmHg 54%
    13:00 +18°C° 0 mm 3 m/s 765 mmHg 48%
    14:00 +18°C° 0 mm 3 m/s 764 mmHg 48%
    15:00 +18°C° 0 mm 3 m/s 763 mmHg 47%
    16:00 +18°C° 0 mm 3 m/s 763 mmHg 46%
    17:00 +16°C° 0 mm 2 m/s 763 mmHg 52%
    18:00 +15°C° 0 mm 2 m/s 762 mmHg 58%
    19:00 +13°C° 0 mm 2 m/s 762 mmHg 64%
    20:00 +12°C° 0 mm 2 m/s 762 mmHg 67%
    21:00 +12°C° 0 mm 2 m/s 762 mmHg 70%
    22:00 +10°C° 0 mm 2 m/s 762 mmHg 73%
    23:00 +9°C° 0 mm 2 m/s 761 mmHg 76%

    31 Martie, Duminică

    Timp Temperatura Precipitaţii Vânt Presiune Umiditate
    00:00 +9°C° 0 mm 2 m/s 761 mmHg 79%
    01:00 +9°C° 0 mm 2 m/s 761 mmHg 82%
    02:00 +9°C° 0 mm 2 m/s 761 mmHg 84%
    03:00 +9°C° 0 mm 2 m/s 761 mmHg 87%
    04:00 +9°C° 0 mm 2 m/s 761 mmHg 90%
    05:00 +8°C° 0.4 mm 3 m/s 761 mmHg 89%
    06:00 +7°C° 0.4 mm 4 m/s 762 mmHg 89%
    07:00 +6°C° 0.4 mm 5 m/s 762 mmHg 89%
    08:00 +6°C° 0.2 mm 5 m/s 762 mmHg 83%
    09:00 +7°C° 0.2 mm 5 m/s 763 mmHg 77%
    10:00 +7°C° 0.2 mm 5 m/s 763 mmHg 71%
    11:00 +7°C° 0 mm 5 m/s 764 mmHg 64%
    12:00 +8°C° 0 mm 5 m/s 764 mmHg 57%
    13:00 +9°C° 0 mm 5 m/s 764 mmHg 50%
    14:00 +8°C° 0 mm 5 m/s 764 mmHg 46%
    15:00 +8°C° 0 mm 5 m/s 765 mmHg 42%
    16:00 +8°C° 0 mm 5 m/s 765 mmHg 38%
    17:00 +6°C° 0 mm 4 m/s 765 mmHg 43%
    18:00 +5°C° 0 mm 3 m/s 766 mmHg 47%
    19:00 +3°C° 0 mm 3 m/s 766 mmHg 52%
    20:00 +2°C° 0 mm 3 m/s 766 mmHg 54%
    21:00 +3°C° 0 mm 2 m/s 767 mmHg 56%
    22:00 +2°C° 0 mm 2 m/s 767 mmHg 58%
    23:00 +2°C° 0 mm 2 m/s 767 mmHg 66%
    Arată mai mult